Regional Weather Roundup
Issued by NWS

Home | Current Version | Previous Version | Text Only | Print | Product List | Glossary On
Versions: 1 2 3 4 5 6 7 8 9 10 11 12 13 14 15 16 17 18 19 20 21 22 23 24 25 26 27 28 29 30 31 32 33 34 35 36 37 38 39 40 41 42 43 44 45 46 47 48 49 50
000
ASUS42 KKEY 171210
RWRKEY

FLORIDA REGIONAL WEATHER ROUNDUP FOR THE FLORIDA KEYS
NATIONAL WEATHER SERVICE KEY WEST FLORIDA
800 AM EDT WED SEP 17 2014

...SOUTH FLORIDA AND THE KEYS...

CITY           SKY/WX    TMP DP  RH WIND       PRES   REMARKS
FORT MYERS     CLOUDY    76  74  93 CALM      29.96S
SW REGIONAL AP CLOUDY    76  70  82 N3        29.97R
NAPLES         CLOUDY    79  73  82 NE3       29.96S
MIAMI          PTSUNNY   79  75  87 CALM      29.97R
WEST KENDALL   MOSUNNY   78  76  93 CALM      29.97R
HOMESTEAD      MOSUNNY   76  73  91 NW1       29.97R
MARATHON       SUNNY     80  77  90 CALM      29.97R
BOCA CHICA NAS PTCLDY    80  75  84 CALM      29.97R
KEY WEST INTL  CLEAR     81  78  91 CALM      29.98R

...INTERNATIONAL WEATHER...

CITY           SKY/WX    TMP DP  RH WIND       PRES   REMARKS
NASSAU BAHAMAS NOT AVBL
CANCUN MEXICO  MOCLDY    73  73 100 N5        29.96S
COZUMEL MEXICO PTCLDY    70  70 100 CALM      29.96R

ADJACENT COASTAL WATERS...

STATION/POSITION TIME  SKY/WX   TEMP    WIND        PRES    WAVE
                                AIR SEA DIR/SP/G            HT/PER
                 (UTC)          (F)     (DEG/KT/KT) (MB)    (FT/S)
PULASKI SHOAL LI 1200            85      CALM  /  1 1014.9R
SAND KEY         1200            82     320/  1/  2 1015.0R
SOMBRERO KEY     1200            82     310/  3/  3 1015.7R
LONG KEY         1200            82 84  280/  2/  3 1015.8R
MOLASSES REEF    1200            81 85  290/  2/  4 1015.0R
FOWEY ROCKS      1200            81 85  300/  3/  3 1015.2R
Buoy 42080       NOT AVBL

$$


USA.gov is the U.S. government's official web portal to all federal, state and local government web resources and services.